Location: *
(58.7167°N, 26.1833°E)
Time: 19:43:20
(UTC+00:00)

Cosmos 1269 Rocket - Pass Details

Date: 25 August 2019
Orbit: 772 x 780 km, 74.1° (Epoch: 18 October)

Event Time Altitude Azimuth Distance (km) Brightness Sun altitude
Rises 19:49:18 0° 328° (NNW) 3,265 9.2 -14.5°
Reaches altitude 10° 19:51:41 10° 327° (NNW) 2,335 7.9 -14.6°
Maximum altitude 19:56:59 76° 243° (WSW) 805 4.1 -15.1°
Enters shadow 20:00:20 23° 161° (SSE) 1,604 5.1 -15.3°
